This is the latest recevied weather packets stored in our database for station/object N9XRG. If no packets are shown the sender has not sent any weather packets the latest 10 day(s).
| Time | Temp. | Humidity | Pressure | Rain* | Wind** | Luminosity | Snow |
|---|---|---|---|---|---|---|---|
| 1777566350 | 13.89° C | 51% | 1016.6 hPa | 0 mm | - | 1010 W/m² | - |
| 1777566047 | 13.33° C | 51% | 1016.7 hPa | 0 mm | - | 918 W/m² | - |
| 1777565742 | 13.33° C | 50% | 1016.7 hPa | 0 mm | - | 918 W/m² | - |
| 1777565438 | 13.89° C | 53% | 1016.7 hPa | 0 mm | - | 950 W/m² | - |
| 1777565135 | 13.89° C | 54% | 1016.6 hPa | 0 mm | - | 799 W/m² | - |
| 1777564832 | 13.33° C | 57% | 1016.8 hPa | 0 mm | - | 913 W/m² | - |
| 1777564526 | 13.33° C | 61% | 1017 hPa | 0 mm | - | 920 W/m² | - |
| 1777564221 | 12.78° C | 56% | 1016.7 hPa | 0 mm | - | 896 W/m² | - |
| 1777563918 | 12.78° C | 60% | 1016.8 hPa | 0 mm | - | 859 W/m² | - |
| 1777563615 | 12.22° C | 61% | 1016.6 hPa | 0 mm | - | 890 W/m² | - |
| 1777563314 | 12.22° C | 61% | 1016.6 hPa | 0 mm | - | 691 W/m² | - |
| 1777563011 | 12.78° C | 61% | 1016.8 hPa | 0 mm | - | 814 W/m² | - |
| 1777562707 | 11.67° C | 61% | 1016.7 hPa | 0 mm | - | 847 W/m² | - |
| 1777562406 | 10.56° C | 66% | 1016.6 hPa | 0 mm | - | 826 W/m² | - |
| 1777562102 | 11.67° C | 62% | 1016.6 hPa | 0 mm | - | 106 W/m² | - |
| 1777561800 | 12.22° C | 58% | 1016.7 hPa | 0 mm | - | 904 W/m² | - |
| 1777561496 | 12.22° C | 61% | 1016.7 hPa | 0 mm | - | 816 W/m² | - |
| 1777561191 | 12.22° C | 59% | 1016.7 hPa | 0 mm | - | 773 W/m² | - |
| 1777560885 | 12.22° C | 62% | 1016.8 hPa | 0 mm | - | 758 W/m² | - |
| 1777560584 | 12.22° C | 66% | 1016.4 hPa | 0 mm | - | 806 W/m² | - |
| 1777560281 | 11.67° C | 63% | 1016.5 hPa | 0 mm | - | 784 W/m² | - |
| 1777559979 | 10.56° C | 65% | 1016.6 hPa | 0 mm | - | 755 W/m² | - |
| 1777559679 | 10.56° C | 65% | 1016.7 hPa | 0 mm | - | 164 W/m² | - |
| 1777559377 | 10° C | 67% | 1016.6 hPa | 0 mm | - | 782 W/m² | - |
| 1777559073 | 10° C | 65% | 1016.7 hPa | 0 mm | - | 185 W/m² | - |
* Rain latest hour (hover to see other rain measurements)
** Current wind speed in m/s (hover to see current wind gust speed)